Time,TemperatureF,DewpointF,PressureIn,WindDirection,WindDirectionDegrees,WindSpeedMPH,WindSpeedGustMPH,Humidity,HourlyPrecipIn,Conditions,Clouds,dailyrainin,SolarRadiationWatts/m^2,SoftwareType,DateUTC
2013-04-24 00:01:00,77.0,68.5,29.88,North,-999,0.0,0.0,75,0.00,,,-99.99,0,WeatherLink 5.4,2013-04-24 04:01:00,
2013-04-24 00:02:00,77.0,68.5,29.88,North,-999,0.0,0.0,75,0.00,,,-99.99,0,WeatherLink 5.4,2013-04-24 04:02:00,
2013-04-24 00:04:00,77.0,68.5,29.88,North,-999,0.0,0.0,75,0.00,,,-99.99,0,WeatherLink 5.4,2013-04-24 04:04:00,
2013-04-24 00:06:00,77.0,68.5,29.88,North,-999,0.0,0.0,75,0.00,,,-99.99,0,WeatherLink 5.4,2013-04-24 04:06:00,
2013-04-24 00:11:00,77.0,68.5,29.88,North,-999,0.0,0.0,75,0.00,,,-99.99,0,WeatherLink 5.4,2013-04-24 04:11:00,
2013-04-24 00:17:00,77.0,68.9,29.88,North,-999,0.0,0.0,76,0.00,,,-99.99,0,WeatherLink 5.4,2013-04-24 04:17:00,
2013-04-24 00:23:00,76.8,68.7,29.88,North,-999,0.0,0.0,76,0.00,,,-99.99,0,WeatherLink 5.4,2013-04-24 04:23:00,
2013-04-24 00:29:00,76.7,68.6,29.86,North,-999,0.0,0.0,76,0.00,,,-99.99,0,WeatherLink 5.4,2013-04-24 04:29:00,
2013-04-24 00:35:00,76.5,68.7,29.86,North,-999,0.0,0.0,77,0.00,,,-99.99,0,WeatherLink 5.4,2013-04-24 04:35:00,
2013-04-24 00:40:00,76.5,68.7,29.86,North,-999,0.0,0.0,77,0.00,,,-99.99,0,WeatherLink 5.4,2013-04-24 04:40:00,
2013-04-24 00:46:00,76.5,68.7,29.86,North,-999,0.0,0.0,77,0.00,,,-99.99,0,WeatherLink 5.4,2013-04-24 04:46:00,
2013-04-24 00:52:00,76.5,68.7,29.86,North,-999,0.0,0.0,77,0.00,,,-99.99,0,WeatherLink 5.4,2013-04-24 04:52:00,
2013-04-24 00:57:00,76.3,68.6,29.86,North,-999,0.0,0.0,77,0.00,,,-99.99,0,WeatherLink 5.4,2013-04-24 04:57:00,
2013-04-24 01:03:00,76.3,68.6,29.86,North,-999,0.0,0.0,77,0.00,,,-99.99,0,WeatherLink 5.4,2013-04-24 05:03:00,
2013-04-24 01:09:00,76.3,68.6,29.86,North,-999,0.0,0.0,77,0.00,,,-99.99,0,WeatherLink 5.4,2013-04-24 05:09:00,
2013-04-24 01:14:00,76.3,68.9,29.85,North,-999,0.0,0.0,78,0.00,,,-99.99,0,WeatherLink 5.4,2013-04-24 05:14:00,
2013-04-24 01:20:00,76.3,68.9,29.85,North,-999,0.0,0.0,78,0.00,,,-99.99,0,WeatherLink 5.4,2013-04-24 05:20:00,
2013-04-24 01:25:00,76.1,68.7,29.84,North,-999,0.0,0.0,78,0.00,,,-99.99,0,WeatherLink 5.4,2013-04-24 05:25:00,
2013-04-24 01:30:00,76.1,68.7,29.84,North,-999,0.0,0.0,78,0.00,,,-99.99,0,WeatherLink 5.4,2013-04-24 05:30:00,
2013-04-24 01:36:00,76.0,68.6,29.84,North,-999,0.0,0.0,78,0.00,,,-99.99,0,WeatherLink 5.4,2013-04-24 05:36:00,
2013-04-24 01:42:00,75.8,68.8,29.84,North,-999,0.0,0.0,79,0.00,,,-99.99,0,WeatherLink 5.4,2013-04-24 05:42:00,
2013-04-24 01:47:00,75.8,68.8,29.84,North,-999,0.0,0.0,79,0.00,,,-99.99,0,WeatherLink 5.4,2013-04-24 05:47:00,
2013-04-24 01:52:00,75.4,68.8,29.84,North,-999,0.0,0.0,80,0.00,,,-99.99,0,WeatherLink 5.4,2013-04-24 05:52:00,
2013-04-24 01:58:00,75.1,68.5,29.83,North,-999,0.0,0.0,80,0.00,,,-99.99,0,WeatherLink 5.4,2013-04-24 05:58:00,
2013-04-24 02:04:00,74.9,68.3,29.83,North,-999,0.0,0.0,80,0.00,,,-99.99,0,WeatherLink 5.4,2013-04-24 06:04:00,
2013-04-24 02:10:00,74.7,68.5,29.83,North,-999,0.0,0.0,81,0.00,,,-99.99,0,WeatherLink 5.4,2013-04-24 06:10:00,
2013-04-24 02:16:00,74.4,68.2,29.83,North,-999,0.0,0.0,81,0.00,,,-99.99,0,WeatherLink 5.4,2013-04-24 06:16:00,
2013-04-24 02:21:00,74.2,68.3,29.83,North,-999,0.0,0.0,82,0.00,,,-99.99,0,WeatherLink 5.4,2013-04-24 06:21:00,
2013-04-24 02:26:00,74.0,68.2,29.83,North,-999,0.0,0.0,82,0.00,,,-99.99,0,WeatherLink 5.4,2013-04-24 06:26:00,
2013-04-24 02:32:00,73.9,68.1,29.83,North,-999,0.0,0.0,82,0.00,,,-99.99,0,WeatherLink 5.4,2013-04-24 06:32:00,
2013-04-24 02:38:00,73.7,67.9,29.83,North,-999,0.0,0.0,82,0.00,,,-99.99,0,WeatherLink 5.4,2013-04-24 06:38:00,
2013-04-24 02:44:00,73.5,68.0,29.82,North,-999,0.0,0.0,83,0.00,,,-99.99,0,WeatherLink 5.4,2013-04-24 06:44:00,
2013-04-24 02:50:00,73.5,68.0,29.82,North,-999,0.0,0.0,83,0.00,,,-99.99,0,WeatherLink 5.4,2013-04-24 06:50:00,
2013-04-24 02:55:00,73.3,67.8,29.83,North,-999,0.0,0.0,83,0.00,,,-99.99,0,WeatherLink 5.4,2013-04-24 06:55:00,
2013-04-24 03:01:00,73.3,68.2,29.83,North,-999,0.0,0.0,84,0.00,,,-99.99,0,WeatherLink 5.4,2013-04-24 07:01:00,
2013-04-24 03:07:00,73.2,68.1,29.83,North,-999,0.0,0.0,84,0.00,,,-99.99,0,WeatherLink 5.4,2013-04-24 07:07:00,
2013-04-24 03:13:00,73.2,68.1,29.83,North,-999,0.0,0.0,84,0.00,,,-99.99,0,WeatherLink 5.4,2013-04-24 07:13:00,
2013-04-24 03:19:00,73.2,68.1,29.83,North,-999,0.0,0.0,84,0.00,,,-99.99,0,WeatherLink 5.4,2013-04-24 07:19:00,
2013-04-24 03:24:00,73.2,68.1,29.83,North,-999,0.0,0.0,84,0.00,,,-99.99,0,WeatherLink 5.4,2013-04-24 07:24:00,
2013-04-24 03:29:00,73.2,68.1,29.83,North,-999,0.0,0.0,84,0.00,,,-99.99,0,WeatherLink 5.4,2013-04-24 07:29:00,
2013-04-24 03:35:00,73.2,68.1,29.83,North,-999,0.0,0.0,84,0.00,,,-99.99,0,WeatherLink 5.4,2013-04-24 07:35:00,
2013-04-24 03:40:00,73.2,68.4,29.82,North,-999,0.0,0.0,85,0.00,,,-99.99,0,WeatherLink 5.4,2013-04-24 07:40:00,
2013-04-24 03:46:00,73.2,68.4,29.82,North,-999,0.0,0.0,85,0.00,,,-99.99,0,WeatherLink 5.4,2013-04-24 07:46:00,
2013-04-24 03:52:00,73.2,68.4,29.82,North,-999,0.0,0.0,85,0.00,,,-99.99,0,WeatherLink 5.4,2013-04-24 07:52:00,
2013-04-24 03:57:00,73.3,68.2,29.82,North,-999,0.0,0.0,84,0.00,,,-99.99,0,WeatherLink 5.4,2013-04-24 07:57:00,
2013-04-24 04:03:00,73.3,68.2,29.82,North,-999,0.0,0.0,84,0.00,,,-99.99,0,WeatherLink 5.4,2013-04-24 08:03:00,
2013-04-24 04:09:00,73.3,68.2,29.82,North,-999,0.0,0.0,84,0.00,,,-99.99,0,WeatherLink 5.4,2013-04-24 08:09:00,
2013-04-24 04:15:00,73.5,68.0,29.82,North,-999,0.0,0.0,83,0.00,,,-99.99,0,WeatherLink 5.4,2013-04-24 08:15:00,
2013-04-24 04:21:00,73.7,67.9,29.82,North,-999,0.0,0.0,82,0.00,,,-99.99,0,WeatherLink 5.4,2013-04-24 08:21:00,
2013-04-24 04:27:00,73.9,68.1,29.82,North,-999,0.0,0.0,82,0.00,,,-99.99,0,WeatherLink 5.4,2013-04-24 08:27:00,
2013-04-24 04:33:00,73.9,68.1,29.82,North,-999,0.0,0.0,82,0.00,,,-99.99,0,WeatherLink 5.4,2013-04-24 08:33:00,
2013-04-24 04:39:00,74.0,68.2,29.82,North,-999,0.0,0.0,82,0.00,,,-99.99,0,WeatherLink 5.4,2013-04-24 08:39:00,
2013-04-24 04:45:00,73.9,68.1,29.82,North,-999,0.0,0.0,82,0.00,,,-99.99,0,WeatherLink 5.4,2013-04-24 08:45:00,
2013-04-24 04:50:00,73.9,68.1,29.82,North,-999,0.0,0.0,82,0.00,,,-99.99,0,WeatherLink 5.4,2013-04-24 08:50:00,
2013-04-24 04:56:00,73.9,68.1,29.83,North,-999,0.0,0.0,82,0.00,,,-99.99,0,WeatherLink 5.4,2013-04-24 08:56:00,
2013-04-24 05:01:00,73.9,68.1,29.83,North,-999,0.0,0.0,82,0.00,,,-99.99,0,WeatherLink 5.4,2013-04-24 09:01:00,
2013-04-24 05:06:00,73.9,68.1,29.83,North,-999,0.0,0.0,82,0.00,,,-99.99,0,WeatherLink 5.4,2013-04-24 09:06:00,
2013-04-24 05:11:00,73.9,68.1,29.83,North,-999,0.0,0.0,82,0.00,,,-99.99,0,WeatherLink 5.4,2013-04-24 09:11:00,
2013-04-24 05:18:00,73.9,68.1,29.83,North,-999,0.0,0.0,82,0.00,,,-99.99,0,WeatherLink 5.4,2013-04-24 09:18:00,
2013-04-24 05:24:00,73.7,67.9,29.83,North,-999,0.0,0.0,82,0.00,,,-99.99,0,WeatherLink 5.4,2013-04-24 09:24:00,
2013-04-24 05:29:00,73.7,67.9,29.83,North,-999,0.0,0.0,82,0.00,,,-99.99,0,WeatherLink 5.4,2013-04-24 09:29:00,
2013-04-24 05:34:00,73.5,67.7,29.83,North,-999,0.0,0.0,82,0.00,,,-99.99,0,WeatherLink 5.4,2013-04-24 09:34:00,
2013-04-24 05:40:00,73.4,67.9,29.84,North,-999,0.0,0.0,83,0.00,,,-99.99,0,WeatherLink 5.4,2013-04-24 09:40:00,
2013-04-24 05:46:00,73.3,67.8,29.84,North,-999,0.0,0.0,83,0.00,,,-99.99,0,WeatherLink 5.4,2013-04-24 09:46:00,
2013-04-24 05:51:00,73.3,67.8,29.84,North,-999,0.0,0.0,83,0.00,,,-99.99,0,WeatherLink 5.4,2013-04-24 09:51:00,
2013-04-24 05:56:00,73.3,67.8,29.84,North,-999,0.0,0.0,83,0.00,,,-99.99,0,WeatherLink 5.4,2013-04-24 09:56:00,
2013-04-24 06:02:00,73.5,68.0,29.84,North,-999,0.0,0.0,83,0.00,,,-99.99,6,WeatherLink 5.4,2013-04-24 10:02:00,
2013-04-24 06:07:00,73.7,67.9,29.84,North,-999,0.0,0.0,82,0.00,,,-99.99,9,WeatherLink 5.4,2013-04-24 10:07:00,
2013-04-24 06:13:00,73.7,67.9,29.84,North,-999,0.0,0.0,82,0.00,,,-99.99,14,WeatherLink 5.4,2013-04-24 10:13:00,
2013-04-24 06:18:00,73.7,67.9,29.84,North,-999,0.0,0.0,82,0.00,,,-99.99,25,WeatherLink 5.4,2013-04-24 10:18:00,
2013-04-24 06:23:00,73.7,67.9,29.84,North,-999,0.0,0.0,82,0.00,,,-99.99,28,WeatherLink 5.4,2013-04-24 10:23:00,
2013-04-24 06:28:00,73.7,67.9,29.85,North,-999,0.0,0.0,82,0.00,,,-99.99,33,WeatherLink 5.4,2013-04-24 10:28:00,
2013-04-24 06:34:00,73.9,68.4,29.85,North,-999,0.0,0.0,83,0.00,,,-99.99,58,WeatherLink 5.4,2013-04-24 10:34:00,
2013-04-24 06:39:00,73.9,68.4,29.85,North,-999,0.0,0.0,83,0.00,,,-99.99,69,WeatherLink 5.4,2013-04-24 10:39:00,
2013-04-24 06:44:00,74.0,68.5,29.85,North,-999,0.0,0.0,83,0.00,,,-99.99,56,WeatherLink 5.4,2013-04-24 10:44:00,
2013-04-24 06:50:00,74.2,68.7,29.85,North,-999,0.0,0.0,83,0.00,,,-99.99,72,WeatherLink 5.4,2013-04-24 10:50:00,
2013-04-24 06:55:00,74.4,68.9,29.86,North,-999,0.0,0.0,83,0.00,,,-99.99,77,WeatherLink 5.4,2013-04-24 10:55:00,
2013-04-24 07:00:00,74.4,68.5,29.86,North,-999,0.0,0.0,82,0.00,,,-99.99,77,WeatherLink 5.4,2013-04-24 11:00:00,
2013-04-24 07:06:00,74.6,68.4,29.86,North,-999,0.0,0.0,81,0.00,,,-99.99,109,WeatherLink 5.4,2013-04-24 11:06:00,
2013-04-24 07:11:00,74.6,68.4,29.86,North,-999,0.0,0.0,81,0.00,,,-99.99,99,WeatherLink 5.4,2013-04-24 11:11:00,
2013-04-24 07:17:00,74.6,68.0,29.86,North,-999,0.0,0.0,80,0.00,,,-99.99,106,WeatherLink 5.4,2013-04-24 11:17:00,
2013-04-24 07:23:00,74.7,68.1,29.86,North,-999,0.0,0.0,80,0.00,,,-99.99,130,WeatherLink 5.4,2013-04-24 11:23:00,
2013-04-24 07:28:00,74.9,68.3,29.87,North,-999,0.0,0.0,80,0.00,,,-99.99,144,WeatherLink 5.4,2013-04-24 11:28:00,
2013-04-24 07:34:00,75.3,68.7,29.87,North,-999,0.0,0.0,80,0.00,,,-99.99,144,WeatherLink 5.4,2013-04-24 11:34:00,
2013-04-24 07:40:00,75.6,69.0,29.87,North,-999,0.0,0.0,80,0.00,,,-99.99,167,WeatherLink 5.4,2013-04-24 11:40:00,
2013-04-24 07:45:00,75.8,68.4,29.87,North,-999,0.0,0.0,78,0.00,,,-99.99,209,WeatherLink 5.4,2013-04-24 11:45:00,
2013-04-24 07:50:00,76.0,68.3,29.87,North,-999,0.0,0.0,77,0.00,,,-99.99,208,WeatherLink 5.4,2013-04-24 11:50:00,
2013-04-24 07:56:00,76.3,68.2,29.88,North,-999,0.0,0.0,76,0.00,,,-99.99,195,WeatherLink 5.4,2013-04-24 11:56:00,
2013-04-24 08:02:00,76.4,67.1,29.88,North,-999,0.0,0.0,73,0.00,,,-99.99,201,WeatherLink 5.4,2013-04-24 12:02:00,
2013-04-24 08:08:00,76.6,67.3,29.88,North,-999,0.0,0.0,73,0.00,,,-99.99,211,WeatherLink 5.4,2013-04-24 12:08:00,
2013-04-24 08:14:00,76.8,67.1,29.88,SE,135,1.0,5.0,72,0.00,,,-99.99,211,WeatherLink 5.4,2013-04-24 12:14:00,
2013-04-24 08:20:00,77.0,67.3,29.88,North,-999,0.0,0.0,72,0.00,,,-99.99,253,WeatherLink 5.4,2013-04-24 12:20:00,
2013-04-24 08:26:00,77.4,67.7,29.88,North,-999,0.0,0.0,72,0.00,,,-99.99,276,WeatherLink 5.4,2013-04-24 12:26:00,
2013-04-24 08:32:00,77.7,68.0,29.88,North,-999,0.0,0.0,72,0.00,,,-99.99,572,WeatherLink 5.4,2013-04-24 12:32:00,
2013-04-24 08:37:00,78.1,67.9,29.88,SE,135,5.0,10.0,71,0.00,,,-99.99,321,WeatherLink 5.4,2013-04-24 12:37:00,
2013-04-24 08:42:00,78.3,68.1,29.88,SE,135,3.0,6.0,71,0.00,,,-99.99,362,WeatherLink 5.4,2013-04-24 12:42:00,
2013-04-24 08:47:00,78.5,68.3,29.88,SE,135,0.0,1.0,71,0.00,,,-99.99,364,WeatherLink 5.4,2013-04-24 12:47:00,
2013-04-24 08:53:00,78.6,68.4,29.88,ESE,112,1.0,5.0,71,0.00,,,-99.99,410,WeatherLink 5.4,2013-04-24 12:53:00,
2013-04-24 08:58:00,78.8,68.2,29.89,SE,135,4.0,7.0,70,0.00,,,-99.99,353,WeatherLink 5.4,2013-04-24 12:58:00,
2013-04-24 09:04:00,79.0,68.4,29.89,North,-999,0.0,0.0,70,0.00,,,-99.99,408,WeatherLink 5.4,2013-04-24 13:04:00,
2013-04-24 09:10:00,79.2,68.6,29.89,SE,135,0.0,3.0,70,0.00,,,-99.99,373,WeatherLink 5.4,2013-04-24 13:10:00,
2013-04-24 09:16:00,79.3,68.7,29.89,North,-999,0.0,0.0,70,0.00,,,-99.99,413,WeatherLink 5.4,2013-04-24 13:16:00,
2013-04-24 09:21:00,79.6,69.0,29.89,SSE,157,3.0,5.0,70,0.00,,,-99.99,324,WeatherLink 5.4,2013-04-24 13:21:00,
2013-04-24 09:27:00,79.9,68.8,29.89,SSE,157,0.0,3.0,69,0.00,,,-99.99,302,WeatherLink 5.4,2013-04-24 13:27:00,
2013-04-24 09:33:00,80.1,68.6,29.89,East,90,1.0,7.0,68,0.00,,,-99.99,785,WeatherLink 5.4,2013-04-24 13:33:00,
2013-04-24 09:39:00,80.3,68.8,29.89,ESE,112,2.0,6.0,68,0.00,,,-99.99,785,WeatherLink 5.4,2013-04-24 13:39:00,
2013-04-24 09:45:00,80.8,68.8,29.89,SE,135,6.0,11.0,67,0.00,,,-99.99,604,WeatherLink 5.4,2013-04-24 13:45:00,
2013-04-24 09:51:00,80.9,68.5,29.89,SE,135,5.0,11.0,66,0.00,,,-99.99,572,WeatherLink 5.4,2013-04-24 13:51:00,
2013-04-24 09:57:00,81.1,68.7,29.89,East,90,7.0,10.0,66,0.00,,,-99.99,475,WeatherLink 5.4,2013-04-24 13:57:00,
2013-04-24 10:02:00,81.1,68.7,29.89,East,90,7.0,12.0,66,0.00,,,-99.99,456,WeatherLink 5.4,2013-04-24 14:02:00,
2013-04-24 10:07:00,81.2,68.3,29.89,ESE,112,1.0,5.0,65,0.00,,,-99.99,977,WeatherLink 5.4,2013-04-24 14:07:00,
2013-04-24 10:13:00,81.7,69.2,29.89,North,-999,0.0,0.0,66,0.00,,,-99.99,987,WeatherLink 5.4,2013-04-24 14:13:00,
2013-04-24 10:18:00,82.2,68.3,29.89,SE,135,5.0,8.0,63,0.00,,,-99.99,303,WeatherLink 5.4,2013-04-24 14:18:00,
2013-04-24 10:24:00,82.4,68.5,29.88,ESE,112,2.0,6.0,63,0.00,,,-99.99,1017,WeatherLink 5.4,2013-04-24 14:24:00,
2013-04-24 10:30:00,82.6,68.3,29.88,ESE,112,7.0,11.0,62,0.00,,,-99.99,1026,WeatherLink 5.4,2013-04-24 14:30:00,
2013-04-24 10:36:00,83.0,68.2,29.88,SE,135,5.0,9.0,61,0.00,,,-99.99,1054,WeatherLink 5.4,2013-04-24 14:36:00,
2013-04-24 10:42:00,83.2,68.8,29.88,SSE,157,0.0,3.0,62,0.00,,,-99.99,526,WeatherLink 5.4,2013-04-24 14:42:00,
2013-04-24 10:48:00,83.2,67.9,29.88,North,-999,0.0,0.0,60,0.00,,,-99.99,519,WeatherLink 5.4,2013-04-24 14:48:00,
2013-04-24 10:54:00,83.0,68.2,29.88,SSW,202,3.0,8.0,61,0.00,,,-99.99,440,WeatherLink 5.4,2013-04-24 14:54:00,
2013-04-24 11:00:00,83.4,68.1,29.88,ESE,112,2.0,8.0,60,0.00,,,-99.99,1047,WeatherLink 5.4,2013-04-24 15:00:00,
2013-04-24 11:09:00,83.6,68.2,29.88,ESE,112,0.0,3.0,60,0.00,,,-99.99,1010,WeatherLink 5.4,2013-04-24 15:09:00,
2013-04-24 11:15:00,84.0,67.6,29.87,North,-999,0.0,0.0,58,0.00,,,-99.99,964,WeatherLink 5.4,2013-04-24 15:15:00,
2013-04-24 11:21:00,84.0,67.1,29.87,ESE,112,6.0,9.0,57,0.00,,,-99.99,982,WeatherLink 5.4,2013-04-24 15:21:00,
2013-04-24 11:27:00,83.8,67.4,29.87,ESE,112,4.0,12.0,58,0.00,,,-99.99,983,WeatherLink 5.4,2013-04-24 15:27:00,
2013-04-24 11:32:00,84.0,67.6,29.87,ESE,112,3.0,7.0,58,0.00,,,-99.99,1004,WeatherLink 5.4,2013-04-24 15:32:00,
2013-04-24 11:37:00,84.1,67.2,29.87,ESE,112,5.0,8.0,57,0.00,,,-99.99,1044,WeatherLink 5.4,2013-04-24 15:37:00,
2013-04-24 11:43:00,84.5,67.1,29.86,North,-999,0.0,0.0,56,0.00,,,-99.99,973,WeatherLink 5.4,2013-04-24 15:43:00,
2013-04-24 11:49:00,84.9,67.5,29.86,SE,135,4.0,8.0,56,0.00,,,-99.99,994,WeatherLink 5.4,2013-04-24 15:49:00,
2013-04-24 11:54:00,85.1,67.1,29.86,SE,135,2.0,6.0,55,0.00,,,-99.99,1017,WeatherLink 5.4,2013-04-24 15:54:00,
2013-04-24 11:59:00,85.1,67.1,29.86,ESE,112,7.0,11.0,55,0.00,,,-99.99,695,WeatherLink 5.4,2013-04-24 15:59:00,
2013-04-24 12:05:00,85.1,67.6,29.86,East,90,3.0,8.0,56,0.00,,,-99.99,584,WeatherLink 5.4,2013-04-24 16:05:00,
2013-04-24 12:10:00,85.2,67.2,29.86,East,90,2.0,6.0,55,0.00,,,-99.99,927,WeatherLink 5.4,2013-04-24 16:10:00,
2013-04-24 12:16:00,85.7,67.7,29.86,North,-999,0.0,0.0,55,0.00,,,-99.99,431,WeatherLink 5.4,2013-04-24 16:16:00,
2013-04-24 12:22:00,85.9,67.9,29.86,East,90,6.0,10.0,55,0.00,,,-99.99,514,WeatherLink 5.4,2013-04-24 16:22:00,
2013-04-24 12:28:00,85.8,68.3,29.85,ESE,112,5.0,10.0,56,0.00,,,-99.99,750,WeatherLink 5.4,2013-04-24 16:28:00,
2013-04-24 12:34:00,85.7,68.2,29.85,East,90,1.0,3.0,56,0.00,,,-99.99,593,WeatherLink 5.4,2013-04-24 16:34:00,
2013-04-24 12:40:00,85.7,68.7,29.84,SE,135,3.0,6.0,57,0.00,,,-99.99,436,WeatherLink 5.4,2013-04-24 16:40:00,
2013-04-24 12:46:00,85.7,68.7,29.84,ESE,112,1.0,5.0,57,0.00,,,-99.99,352,WeatherLink 5.4,2013-04-24 16:46:00,
2013-04-24 12:51:00,85.4,68.4,29.84,SE,135,5.0,10.0,57,0.00,,,-99.99,280,WeatherLink 5.4,2013-04-24 16:51:00,
2013-04-24 12:57:00,84.9,68.5,29.84,ESE,112,2.0,8.0,58,0.00,,,-99.99,290,WeatherLink 5.4,2013-04-24 16:57:00,
2013-04-24 13:02:00,84.5,67.6,29.84,ESE,112,2.0,7.0,57,0.00,,,-99.99,318,WeatherLink 5.4,2013-04-24 17:02:00,
2013-04-24 13:08:00,84.1,67.2,29.84,ESE,112,2.0,7.0,57,0.00,,,-99.99,575,WeatherLink 5.4,2013-04-24 17:08:00,
2013-04-24 13:14:00,84.6,67.7,29.83,North,-999,0.0,0.0,57,0.00,,,-99.99,509,WeatherLink 5.4,2013-04-24 17:14:00,
2013-04-24 13:19:00,85.2,67.2,29.83,North,-999,0.0,0.0,55,0.00,,,-99.99,512,WeatherLink 5.4,2013-04-24 17:19:00,
2013-04-24 13:24:00,85.3,66.8,29.83,North,-999,0.0,0.0,54,0.00,,,-99.99,169,WeatherLink 5.4,2013-04-24 17:24:00,
2013-04-24 13:29:00,84.9,67.5,29.83,North,-999,0.0,0.0,56,0.00,,,-99.99,111,WeatherLink 5.4,2013-04-24 17:29:00,
2013-04-24 13:34:00,84.1,68.7,29.83,East,90,2.0,8.0,60,0.00,,,-99.99,79,WeatherLink 5.4,2013-04-24 17:34:00,
2013-04-24 13:39:00,83.4,69.0,29.83,North,-999,0.0,0.0,62,0.00,,,-99.99,83,WeatherLink 5.4,2013-04-24 17:39:00,
2013-04-24 13:45:00,82.8,69.4,29.83,ENE,67,0.0,2.0,64,0.00,,,-99.99,81,WeatherLink 5.4,2013-04-24 17:45:00,
2013-04-24 13:50:00,82.4,70.3,29.83,North,-999,0.0,0.0,67,0.00,,,-99.99,102,WeatherLink 5.4,2013-04-24 17:50:00,
2013-04-24 13:56:00,81.6,70.4,29.82,East,90,5.0,13.0,69,0.02,,,-99.99,106,WeatherLink 5.4,2013-04-24 17:56:00,
2013-04-24 14:01:00,80.5,70.6,29.82,East,90,3.0,7.0,72,0.02,,,-99.99,106,WeatherLink 5.4,2013-04-24 18:01:00,
2013-04-24 14:06:00,79.8,70.0,29.82,East,90,1.0,6.0,72,0.02,,,-99.99,113,WeatherLink 5.4,2013-04-24 18:06:00,
2013-04-24 14:11:00,79.4,69.6,29.83,East,90,2.0,8.0,72,0.02,,,-99.99,79,WeatherLink 5.4,2013-04-24 18:11:00,
2013-04-24 14:17:00,79.1,69.7,29.83,East,90,2.0,6.0,73,0.02,,,-99.99,98,WeatherLink 5.4,2013-04-24 18:17:00,
2013-04-24 14:23:00,79.0,69.6,29.83,ESE,112,6.0,11.0,73,0.02,,,-99.99,120,WeatherLink 5.4,2013-04-24 18:23:00,
2013-04-24 14:29:00,78.8,68.2,29.81,East,90,6.0,10.0,70,0.02,,,-99.99,106,WeatherLink 5.4,2013-04-24 18:29:00,
2013-04-24 14:35:00,78.8,68.6,29.81,North,-999,0.0,0.0,71,0.02,,,-99.99,109,WeatherLink 5.4,2013-04-24 18:35:00,
2013-04-24 14:41:00,78.8,69.4,29.82,North,-999,0.0,0.0,73,0.02,,,-99.99,93,WeatherLink 5.4,2013-04-24 18:41:00,
2013-04-24 14:47:00,78.6,69.6,29.82,North,-999,0.0,0.0,74,0.02,,,-99.99,49,WeatherLink 5.4,2013-04-24 18:47:00,
2013-04-24 14:52:00,78.5,69.9,29.82,SE,135,1.0,5.0,75,0.02,,,-99.99,48,WeatherLink 5.4,2013-04-24 18:52:00,
2013-04-24 14:58:00,78.1,69.5,29.82,North,-999,0.0,0.0,75,0.00,,,-99.99,55,WeatherLink 5.4,2013-04-24 18:58:00,
2013-04-24 15:04:00,77.9,69.7,29.82,North,-999,0.0,0.0,76,0.00,,,-99.99,51,WeatherLink 5.4,2013-04-24 19:04:00,
2013-04-24 15:10:00,77.7,69.5,29.82,North,-999,0.0,0.0,76,0.00,,,-99.99,49,WeatherLink 5.4,2013-04-24 19:10:00,
2013-04-24 15:16:00,77.6,69.8,29.82,North,-999,0.0,0.0,77,0.00,,,-99.99,46,WeatherLink 5.4,2013-04-24 19:16:00,
2013-04-24 15:21:00,77.4,69.2,29.82,North,-999,0.0,0.0,76,0.00,,,-99.99,42,WeatherLink 5.4,2013-04-24 19:21:00,
2013-04-24 15:26:00,77.4,69.2,29.82,SSE,157,0.0,3.0,76,0.00,,,-99.99,42,WeatherLink 5.4,2013-04-24 19:26:00,
2013-04-24 15:31:00,77.6,69.4,29.82,SSE,157,1.0,5.0,76,0.00,,,-99.99,48,WeatherLink 5.4,2013-04-24 19:31:00,
2013-04-24 15:37:00,77.6,69.4,29.82,South,180,2.0,5.0,76,0.00,,,-99.99,45,WeatherLink 5.4,2013-04-24 19:37:00,
2013-04-24 15:43:00,77.6,69.8,29.83,North,-999,0.0,0.0,77,0.00,,,-99.99,60,WeatherLink 5.4,2013-04-24 19:43:00,
2013-04-24 15:49:00,77.5,70.1,29.83,North,-999,0.0,0.0,78,0.00,,,-99.99,56,WeatherLink 5.4,2013-04-24 19:49:00,
2013-04-24 15:54:00,77.4,70.0,29.83,North,-999,0.0,0.0,78,0.00,,,-99.99,70,WeatherLink 5.4,2013-04-24 19:54:00,
2013-04-24 15:59:00,77.4,70.0,29.83,North,-999,0.0,0.0,78,0.00,,,-99.99,77,WeatherLink 5.4,2013-04-24 19:59:00,
2013-04-24 16:05:00,77.4,69.6,29.83,North,-999,0.0,0.0,77,0.00,,,-99.99,83,WeatherLink 5.4,2013-04-24 20:05:00,
2013-04-24 16:11:00,77.4,69.6,29.83,North,-999,0.0,0.0,77,0.00,,,-99.99,70,WeatherLink 5.4,2013-04-24 20:11:00,
2013-04-24 16:17:00,77.4,70.0,29.83,North,-999,0.0,0.0,78,0.00,,,-99.99,69,WeatherLink 5.4,2013-04-24 20:17:00,
2013-04-24 16:22:00,77.6,69.8,29.83,North,-999,0.0,0.0,77,0.00,,,-99.99,97,WeatherLink 5.4,2013-04-24 20:22:00,
2013-04-24 16:27:00,77.6,69.8,29.83,North,-999,0.0,0.0,77,0.00,,,-99.99,123,WeatherLink 5.4,2013-04-24 20:27:00,
2013-04-24 16:33:00,77.6,69.8,29.83,North,-999,0.0,0.0,77,0.00,,,-99.99,135,WeatherLink 5.4,2013-04-24 20:33:00,
2013-04-24 16:38:00,77.6,69.4,29.83,South,180,1.0,3.0,76,0.00,,,-99.99,132,WeatherLink 5.4,2013-04-24 20:38:00,
2013-04-24 16:44:00,77.4,68.9,29.83,North,-999,0.0,0.0,75,0.00,,,-99.99,127,WeatherLink 5.4,2013-04-24 20:44:00,
2013-04-24 16:49:00,77.6,69.4,29.83,North,-999,0.0,0.0,76,0.00,,,-99.99,172,WeatherLink 5.4,2013-04-24 20:49:00,
2013-04-24 16:54:00,77.6,69.0,29.83,North,-999,0.0,0.0,75,0.00,,,-99.99,192,WeatherLink 5.4,2013-04-24 20:54:00,
2013-04-24 16:59:00,77.7,69.1,29.83,SW,225,0.0,1.0,75,0.00,,,-99.99,172,WeatherLink 5.4,2013-04-24 20:59:00,
2013-04-24 17:05:00,77.7,68.7,29.83,North,-999,0.0,0.0,74,0.00,,,-99.99,172,WeatherLink 5.4,2013-04-24 21:05:00,
2013-04-24 17:11:00,77.7,68.7,29.82,North,-999,0.0,0.0,74,0.00,,,-99.99,151,WeatherLink 5.4,2013-04-24 21:11:00,
2013-04-24 17:17:00,77.7,68.7,29.82,North,-999,0.0,0.0,74,0.00,,,-99.99,125,WeatherLink 5.4,2013-04-24 21:17:00,
2013-04-24 17:23:00,77.7,68.7,29.82,South,180,2.0,5.0,74,0.00,,,-99.99,128,WeatherLink 5.4,2013-04-24 21:23:00,
2013-04-24 17:28:00,77.7,68.4,29.83,North,-999,0.0,0.0,73,0.00,,,-99.99,132,WeatherLink 5.4,2013-04-24 21:28:00,
2013-04-24 17:33:00,77.9,68.5,29.83,North,-999,0.0,0.0,73,0.00,,,-99.99,130,WeatherLink 5.4,2013-04-24 21:33:00,
2013-04-24 17:39:00,77.9,68.9,29.83,North,-999,0.0,0.0,74,0.00,,,-99.99,273,WeatherLink 5.4,2013-04-24 21:39:00,
2013-04-24 17:45:00,78.1,68.3,29.83,North,-999,0.0,0.0,72,0.00,,,-99.99,176,WeatherLink 5.4,2013-04-24 21:45:00,
2013-04-24 17:50:00,78.3,68.5,29.83,North,-999,0.0,0.0,72,0.00,,,-99.99,169,WeatherLink 5.4,2013-04-24 21:50:00,
2013-04-24 17:56:00,78.5,68.3,29.83,North,-999,0.0,0.0,71,0.00,,,-99.99,169,WeatherLink 5.4,2013-04-24 21:56:00,
2013-04-24 18:01:00,78.6,68.4,29.83,North,-999,0.0,0.0,71,0.00,,,-99.99,128,WeatherLink 5.4,2013-04-24 22:01:00,
2013-04-24 18:07:00,78.8,68.6,29.83,North,-999,0.0,0.0,71,0.00,,,-99.99,99,WeatherLink 5.4,2013-04-24 22:07:00,
2013-04-24 18:12:00,79.0,68.8,29.83,North,-999,0.0,0.0,71,0.00,,,-99.99,73,WeatherLink 5.4,2013-04-24 22:12:00,
2013-04-24 18:17:00,79.0,68.8,29.83,North,-999,0.0,0.0,71,0.00,,,-99.99,40,WeatherLink 5.4,2013-04-24 22:17:00,
2013-04-24 18:23:00,78.9,69.1,29.83,North,-999,0.0,0.0,72,0.00,,,-99.99,26,WeatherLink 5.4,2013-04-24 22:23:00,
2013-04-24 18:29:00,78.6,69.2,29.84,SE,135,0.0,3.0,73,0.00,,,-99.99,19,WeatherLink 5.4,2013-04-24 22:29:00,
2013-04-24 18:35:00,78.5,69.5,29.84,North,-999,0.0,0.0,74,0.00,,,-99.99,14,WeatherLink 5.4,2013-04-24 22:35:00,
2013-04-24 18:41:00,78.1,69.5,29.84,SSE,157,2.0,5.0,75,0.00,,,-99.99,11,WeatherLink 5.4,2013-04-24 22:41:00,
2013-04-24 18:47:00,77.9,69.7,29.84,North,-999,0.0,0.0,76,0.00,,,-99.99,6,WeatherLink 5.4,2013-04-24 22:47:00,
2013-04-24 18:52:00,77.7,69.5,29.84,SSE,157,0.0,2.0,76,0.00,,,-99.99,0,WeatherLink 5.4,2013-04-24 22:52:00,
2013-04-24 18:57:00,77.6,69.8,29.85,North,-999,0.0,0.0,77,0.00,,,-99.99,0,WeatherLink 5.4,2013-04-24 22:57:00,
2013-04-24 19:03:00,77.4,69.6,29.85,North,-999,0.0,0.0,77,0.00,,,-99.99,0,WeatherLink 5.4,2013-04-24 23:03:00,
2013-04-24 19:08:00,77.2,69.0,29.85,North,-999,0.0,0.0,76,0.00,,,-99.99,0,WeatherLink 5.4,2013-04-24 23:08:00,
2013-04-24 19:14:00,77.2,69.0,29.86,North,-999,0.0,0.0,76,0.00,,,-99.99,0,WeatherLink 5.4,2013-04-24 23:14:00,
2013-04-24 19:20:00,77.2,69.4,29.86,North,-999,0.0,0.0,77,0.00,,,-99.99,0,WeatherLink 5.4,2013-04-24 23:20:00,
2013-04-24 19:26:00,77.2,69.4,29.86,North,-999,0.0,0.0,77,0.00,,,-99.99,0,WeatherLink 5.4,2013-04-24 23:26:00,
2013-04-24 19:32:00,77.2,69.4,29.86,North,-999,0.0,0.0,77,0.00,,,-99.99,0,WeatherLink 5.4,2013-04-24 23:32:00,
2013-04-24 19:38:00,77.0,69.2,29.86,SSE,157,0.0,1.0,77,0.00,,,-99.99,0,WeatherLink 5.4,2013-04-24 23:38:00,
2013-04-24 19:44:00,76.8,69.4,29.86,North,-999,0.0,0.0,78,0.00,,,-99.99,0,WeatherLink 5.4,2013-04-24 23:44:00,
2013-04-24 19:50:00,76.7,69.7,29.86,North,-999,0.0,0.0,79,0.00,,,-99.99,0,WeatherLink 5.4,2013-04-24 23:50:00,
2013-04-24 19:56:00,76.4,69.4,29.87,North,-999,0.0,0.0,79,0.00,,,-99.99,0,WeatherLink 5.4,2013-04-24 23:56:00,
2013-04-24 20:02:00,76.0,69.0,29.87,North,-999,0.0,0.0,79,0.00,,,-99.99,0,WeatherLink 5.4,2013-04-25 00:02:00,
2013-04-24 20:07:00,75.7,68.7,29.87,North,-999,0.0,0.0,79,0.00,,,-99.99,0,WeatherLink 5.4,2013-04-25 00:07:00,
2013-04-24 20:12:00,75.6,68.6,29.87,North,-999,0.0,0.0,79,0.00,,,-99.99,0,WeatherLink 5.4,2013-04-25 00:12:00,
2013-04-24 20:17:00,75.4,68.8,29.87,North,-999,0.0,0.0,80,0.00,,,-99.99,0,WeatherLink 5.4,2013-04-25 00:17:00,
2013-04-24 20:23:00,75.1,68.5,29.87,North,-999,0.0,0.0,80,0.00,,,-99.99,0,WeatherLink 5.4,2013-04-25 00:23:00,
2013-04-24 20:29:00,75.1,68.5,29.87,North,-999,0.0,0.0,80,0.00,,,-99.99,0,WeatherLink 5.4,2013-04-25 00:29:00,
2013-04-24 20:35:00,75.0,68.4,29.87,North,-999,0.0,0.0,80,0.00,,,-99.99,0,WeatherLink 5.4,2013-04-25 00:35:00,
2013-04-24 20:41:00,74.9,68.7,29.88,North,-999,0.0,0.0,81,0.00,,,-99.99,0,WeatherLink 5.4,2013-04-25 00:41:00,
2013-04-24 20:47:00,74.9,68.7,29.88,North,-999,0.0,0.0,81,0.00,,,-99.99,0,WeatherLink 5.4,2013-04-25 00:47:00,
2013-04-24 20:52:00,74.7,68.5,29.88,North,-999,0.0,0.0,81,0.00,,,-99.99,0,WeatherLink 5.4,2013-04-25 00:52:00,
2013-04-24 20:58:00,74.7,68.5,29.88,North,-999,0.0,0.0,81,0.00,,,-99.99,0,WeatherLink 5.4,2013-04-25 00:58:00,
2013-04-24 21:04:00,74.6,68.4,29.88,North,-999,0.0,0.0,81,0.00,,,-99.99,0,WeatherLink 5.4,2013-04-25 01:04:00,
2013-04-24 21:09:00,74.6,68.4,29.88,North,-999,0.0,0.0,81,0.00,,,-99.99,0,WeatherLink 5.4,2013-04-25 01:09:00,
2013-04-24 21:14:00,74.4,68.2,29.88,North,-999,0.0,0.0,81,0.00,,,-99.99,0,WeatherLink 5.4,2013-04-25 01:14:00,
2013-04-24 21:20:00,74.2,68.3,29.88,North,-999,0.0,0.0,82,0.00,,,-99.99,0,WeatherLink 5.4,2013-04-25 01:20:00,
2013-04-24 21:25:00,74.2,68.3,29.89,North,-999,0.0,0.0,82,0.00,,,-99.99,0,WeatherLink 5.4,2013-04-25 01:25:00,
2013-04-24 21:30:00,74.0,68.5,29.89,North,-999,0.0,0.0,83,0.00,,,-99.99,0,WeatherLink 5.4,2013-04-25 01:30:00,
2013-04-24 21:36:00,73.9,68.4,29.89,North,-999,0.0,0.0,83,0.00,,,-99.99,0,WeatherLink 5.4,2013-04-25 01:36:00,
2013-04-24 21:42:00,73.9,68.4,29.89,North,-999,0.0,0.0,83,0.00,,,-99.99,0,WeatherLink 5.4,2013-04-25 01:42:00,
2013-04-24 21:48:00,73.7,68.2,29.89,North,-999,0.0,0.0,83,0.00,,,-99.99,0,WeatherLink 5.4,2013-04-25 01:48:00,
2013-04-24 21:53:00,73.7,68.2,29.89,North,-999,0.0,0.0,83,0.00,,,-99.99,0,WeatherLink 5.4,2013-04-25 01:53:00,
2013-04-24 21:59:00,73.5,68.4,29.89,North,-999,0.0,0.0,84,0.00,,,-99.99,0,WeatherLink 5.4,2013-04-25 01:59:00,
2013-04-24 22:05:00,73.5,68.4,29.89,North,-999,0.0,0.0,84,0.00,,,-99.99,0,WeatherLink 5.4,2013-04-25 02:05:00,
2013-04-24 22:10:00,73.3,68.2,29.89,North,-999,0.0,0.0,84,0.00,,,-99.99,0,WeatherLink 5.4,2013-04-25 02:10:00,
2013-04-24 22:15:00,73.2,68.1,29.89,North,-999,0.0,0.0,84,0.00,,,-99.99,0,WeatherLink 5.4,2013-04-25 02:15:00,
2013-04-24 22:20:00,73.2,68.1,29.89,North,-999,0.0,0.0,84,0.00,,,-99.99,0,WeatherLink 5.4,2013-04-25 02:20:00,
2013-04-24 22:25:00,73.0,67.9,29.89,North,-999,0.0,0.0,84,0.00,,,-99.99,0,WeatherLink 5.4,2013-04-25 02:25:00,
2013-04-24 22:31:00,73.0,67.9,29.89,North,-999,0.0,0.0,84,0.00,,,-99.99,0,WeatherLink 5.4,2013-04-25 02:31:00,
2013-04-24 22:36:00,73.0,67.9,29.89,North,-999,0.0,0.0,84,0.00,,,-99.99,0,WeatherLink 5.4,2013-04-25 02:36:00,
2013-04-24 22:42:00,73.0,67.9,29.89,North,-999,0.0,0.0,84,0.00,,,-99.99,0,WeatherLink 5.4,2013-04-25 02:42:00,
2013-04-24 22:48:00,73.0,67.9,29.89,North,-999,0.0,0.0,84,0.00,,,-99.99,0,WeatherLink 5.4,2013-04-25 02:48:00,
2013-04-24 22:53:00,72.8,67.7,29.89,North,-999,0.0,0.0,84,0.00,,,-99.99,0,WeatherLink 5.4,2013-04-25 02:53:00,
2013-04-24 22:59:00,72.8,67.7,29.89,North,-999,0.0,0.0,84,0.00,,,-99.99,0,WeatherLink 5.4,2013-04-25 02:59:00,
2013-04-24 23:05:00,72.7,67.6,29.89,North,-999,0.0,0.0,84,0.00,,,-99.99,0,WeatherLink 5.4,2013-04-25 03:05:00,
2013-04-24 23:10:00,72.7,67.9,29.89,North,-999,0.0,0.0,85,0.00,,,-99.99,0,WeatherLink 5.4,2013-04-25 03:10:00,
2013-04-24 23:16:00,72.7,67.9,29.89,North,-999,0.0,0.0,85,0.00,,,-99.99,0,WeatherLink 5.4,2013-04-25 03:16:00,
2013-04-24 23:22:00,72.7,67.9,29.89,North,-999,0.0,0.0,85,0.00,,,-99.99,0,WeatherLink 5.4,2013-04-25 03:22:00,
2013-04-24 23:28:00,72.7,67.9,29.89,North,-999,0.0,0.0,85,0.00,,,-99.99,0,WeatherLink 5.4,2013-04-25 03:28:00,
2013-04-24 23:34:00,72.5,67.7,29.89,North,-999,0.0,0.0,85,0.00,,,-99.99,0,WeatherLink 5.4,2013-04-25 03:34:00,
2013-04-24 23:39:00,72.5,67.7,29.89,North,-999,0.0,0.0,85,0.00,,,-99.99,0,WeatherLink 5.4,2013-04-25 03:39:00,
2013-04-24 23:44:00,72.3,67.5,29.89,North,-999,0.0,0.0,85,0.00,,,-99.99,0,WeatherLink 5.4,2013-04-25 03:44:00,
2013-04-24 23:50:00,72.3,67.5,29.89,North,-999,0.0,0.0,85,0.00,,,-99.99,0,WeatherLink 5.4,2013-04-25 03:50:00,
2013-04-24 23:55:00,72.1,67.7,29.88,North,-999,0.0,0.0,86,0.00,,,-99.99,0,WeatherLink 5.4,2013-04-25 03:55:00,